Погода в Торопеце

Погода в Торопеце : погода сейчас, прогноз погоды и архив. Всё, что Вы хотите узнать о погоде в Торопеце!

Поиск расширенной информации на нашем сайте:

Другие новости

Новости СМИ2

Главная страница сайта

Новости сайта

03.07.2017

Напоминаем, что на нашем специализированном сайте Метеоцентр.Азия вы можете получить высокодетализированные автоматические прогнозы погоды по пунктам России, СНГ и мира в авиационном формате (включающие направление и скорость ветра, видимость, явления погоды, количество и форму облачности, нижнюю и верхнюю границу облачности).


Погода в Торопеце - сегодня

Время (UTC), дата Ветер
(°,м/с) 
Видим.   Явления Облачность Т
(°С)
Тd
(°С)
f(%) Тe
(°С)
Pmin
(гПа)
dP
(гПа)
Po
(мм)
O2
(г/м3)
Тmin Tmax R s Состояние
почвы
15 18.09.18 260 (З) 20000 м    9/4 600 м верхняя 
[Sc|Ci fib]
+15.8 +8.2 61 +17  1017.3  -0.1  746  283           
21 18.09.18 180 (Ю) 10 км    6/6 600 м 
[Sc]
+9 +8 93 +10  1017.7  -0.6  746  290           
00 19.09.18 200 (Ю) 10 км    9/9 600 м 
[Sc]
+11.3 +9.6 89 +13  1016.7  -0.7  746  287           
03 19.09.18 180 (Ю) 20000 м    6/3 600 м верхняя 
[Sc|Ci fib]
+10.2 +9.3 94 +11  1016.8  746  288  +8.9         
09 19.09.18 270 (З) 20000 м    ясно 
+21.8 +10.6 49 +24  1015.3  -0.4  745  276           
12 19.09.18 240 (ЮЗ) 20000 м    3/0 верхняя 
[Ci fib]
+23.9 +10.5 43 +26  1014  -1.1  744  274           
15 19.09.18 240 (ЮЗ) 20000 м    3/0 верхняя 
[Ci fib]
+22.5 +12.3 52 +27  1013.6  -0.5  744  275           
21 19.09.18 180 (Ю) 20000 м    ясно 
+13.9 +12.9 94 +20  1013.9  -0.2  744  283           
00 20.09.18 280 (З) 20000 м    ясно 
+15.4 +12.9 85 +22  1014.3  0.5  744  281           
09 20.09.18 250 (З) 20000 м    ясно 
+20.3 +12.1 59 +24  1016.7  0.5  746  278           
12 20.09.18 280 (З) 20000 м    ясно 
+22.5 +11.4 49 +26  1016.3  -0.2  746  276           
15 20.09.18 250 (З) 20000 м    ясно 
+22.3 +11.9 52 +26  1016.3  746  276           
21 20.09.18 тихо ()   4000 м  дымка  ясно 
+10.8 +10.2 96 +12  1017.6  0.2  746  287           
00 21.09.18 тихо ()   4000 м    ясно 
+10 +9.4 96 +10  1017.8  0.1  746  288           
03 21.09.18 160 (Ю) 4000 м    ясно 
+11.5 +10.9 96 +15  1018  0.3  747  287  +9.4         
09 21.09.18 210 (ЮЗ) 20000 м    4/0 верхняя 
[Ci fib]
+23.7 +13.9 54 +31  1017.1  -0.1  747  274           
12 21.09.18 210 (ЮЗ) 20000 м    8/3 600 м верхняя 
[Sc|Ci fib]
+25.9 +13.7 47 +33  1016.5  -0.4  746  272           
15 21.09.18 190 (Ю) 20000 м    ясно 
+24.2 +13.9 53 +31  1015.5  -1.1  746  273           
21 21.09.18 170 (Ю) 20000 м    ясно 
+17.2 +13.6 79 +26  1014.5  -1  744  279           
00 22.09.18 170 (Ю) 20000 м    ясно 
+15.2 +11.6 79 +20  1013.5  -1.2  744  282           
18 22.09.18 250 (З) 2{14}  4000 м  ливневой дождь  10/10 600 м кучево-дожд. 
[Cb cap]
+10.1 +8.7 91 +10  1011  0.8  741  287    +25.4     
21 22.09.18 190 (Ю) 4000 м  слаб. ливневой дождь  10/10 600 м кучево-дожд. 
[Cb cap]
+9.1 +8.3 95 +10  1010.1  -0.9  741  287           
03 23.09.18 250 (З) 20000 м  {ливн. осадки}  10/10 600 м кучево-дожд. 
[Cb cap]
+9.2 +7.9 92 +9  1008.5  -0.5  740  287  +9       
06 23.09.18 220 (ЮЗ) 20000 м  {ливн. осадки}  4/4 600 м 
[Sc]
+9.4 +7.6 89 +9  1008  -0.6  739  287  +8.7      влажная 
09 23.09.18 220 (ЮЗ) 20000 м    8/8 600 м 
[Sc]
+12 +7.2 72 +12  1007.6  -0.2  739  284           
Время (UTC), дата Ветер
(°,м/с) 
Видим.   Явления Облачность Т
(°С)
Тd
(°С)
f(%) Тe
(°С)
Pmin
(гПа)
dP
(гПа)
Po
(мм)
O2
(г/м3)
Тmin Tmax R s Состояние
почвы

Для получения пояснительной информации подведите курсор к названию столбца.

ПОГОДА в Торопеце - архив

Всё, что Вы хотите узнать о погоде в Торопеце - удобно и подробно!

Выберите нужную дату (начиная с 1 января 2015* года) и нажмите кнопку "Найти".
Будут отображены архивные сводки погоды по пункту Торопец, начиная с указанной даты.


Отображать данные в формате CSV (для использования в таблицах Excel)


Внимание! Наш архив погоды предназначен исключительно для личного некоммерческого использования в познавательных целях. Если Вам необходимы официальные справки о состоянии погоды (для производственных, юридических, коммерческих и т.п. целей), обращайтесь в органы Росгидромета.

*Примечание: данная дата относится к архиву по метеостанциям СССР (Россия, СНГ, Балтия).
Архив по метеостанциям Зарубежной Европы и Азии (кроме Китая) хранится 10 дней, по другим регионам земного шара (Китай, Африка, Америка, Австралия, Океания) - 1 день.

Торопец - район местоположения метеостанции


Название, широта, долгота, высота метеостанции:
Торопец 56.5°ш. 31.6°д. 187 м над ур. моря [Российская Федерация]

Дополнительная информация

В oтличие oт бoльшинства пoгoдных сайтoв мы публикуем пoдрoбную метеoинфoрмацию в детальнoм прoфессиoнальнoм фoрмате.

Характеристики температуры и влажнoсти вoздуха измеряются на высoте 2 м в тени вдали oт зданий и деревьев.
Скoрoсть ветра измеряется на высoте 10 м (на урoвне рoста челoвека скoрoсть ветра ниже в 1.5-2 раза). Если метеoстанция нахoдится в гoрoде или в лесу, тo скoрoсть ветра занижена на 2-4 м/с пo сравнению с oткрытым местoм. Скoрoсть ветра над акватoриями крупных рек и oзёр, а также на вершинах хoлмoв на 2-5 м/с выше, чем в oбычных услoвиях.
Атмoсфернoе давление в разных тoчках местнoсти мoжет значительнo oтличаться oт давления на метеoстанции, в зависимoсти oт услoвий рельефа (при пoдъёме на 10 м давление пoнижается примернo на 1 мм рт.ст.).